Regional Weather Roundup
Issued by NWS Little Rock, AR

Home | Current Version | Previous Version | Graphics & Text | Print | Product List | Glossary On
Versions: 1 2 3 4 5 6 7 8 9 10 11 12 13 14 15 16 17 18 19 20 21 22 23 24 25 26 27 28 29 30 31 32 33 34 35 36 37 38 39 40 41 42 43 44 45 46 47 48 49 50
172
ASUS44 KLZK 222105
RWRLZK

WEATHER ROUNDUP FOR ARKANSAS
NATIONAL WEATHER SERVICE LITTLE ROCK AR
400 PM CDT TUE AUG 22 2017

NOTE: "FAIR" INDICATES FEW OR NO CLOUDS BELOW 12,000 FEET WITH NO
SIGNIFICANT WEATHER AND/OR OBSTRUCTIONS TO VISIBILITY.

ARZ001-003-010-029-222200-
NORTHWEST ARKANSAS

CITY           SKY/WX    TMP DP  RH WIND       PRES   REMARKS
FAYETTEVILLE   CLOUDY    86  73  65 W6        30.04F HX  93
FORT SMITH     CLOUDY    88  72  58 S9        29.99F HX  94
HARRISON       SUNNY     84  70  62 N6        30.05F HX  88
BENTONVILLE    CLOUDY    84  70  61 W5        30.06F HX  88
ROGERS         CLOUDY    85  71  63 NW5       30.06F HX  90
HIGHFILL       CLOUDY    86  71  60 W7        30.05F HX  91
SPRINGDALE     PTSUNNY   86  70  58 CALM      30.07F HX  90
$$

ARZ004-005-016-222200-
NORTH CENTRAL ARKANSAS

CITY           SKY/WX    TMP DP  RH WIND       PRES   REMARKS
FLIPPIN        CLOUDY    84  64  51 N8        30.02F HX  86
MTN HOME       CLOUDY    82  68  62 VRB3      30.04F HX  85
$$

ARZ040-041-222200-
WEST CENTRAL ARKANSAS

CITY           SKY/WX    TMP DP  RH WIND       PRES   REMARKS
MENA           MOSUNNY   88  75  66 SE3       30.05F HX  97
MOUNT IDA      CLOUDY    81  76  84 CALM      30.01F HX  87
$$

ARZ009-017-025-026-028-222200-
NORTHEAST ARKANSAS

CITY           SKY/WX    TMP DP  RH WIND       PRES   REMARKS
CORNING        FAIR      84  73  70 NW13      29.99R HX  91
JONESBORO      MOSUNNY   88  74  63 NW10G20   29.96S HX  96
NEWPORT        SUNNY     89  70  53 NW16      29.97F HX  94
WALNUT RIDGE   SUNNY     88  70  55 CALM      29.98S HX  92
BLYTHEVILLE    PTSUNNY   89  75  63 W9        29.94F HX  99
NW BLYTHEVILLE PTSUNNY   90  73  58 W8        29.94S HX  98
$$

ARZ022-023-033-042-044-222200-
CENTRAL ARKANSAS

CITY           SKY/WX    TMP DP  RH WIND       PRES   REMARKS
LITTLE ROCK    CLOUDY    90  75  61 SW10      29.97F HX 100
N LITTLE ROCK    N/A     93  72  50 W5        29.97F HX 100
JACKSONVILLE   SUNNY     95  72  47 W8        29.96F HX 103
CONWAY           N/A     93  70  46 W8        29.95F HX  99
SEARCY         SUNNY     94  71  47 N9        29.98S HX 101
HOT SPRINGS    CLOUDY    89  72  56 S10       30.02R HX  96
RUSSELLVILLE   SUNNY     89  69  51 SW5       29.98F HX  93
CLINTON        FAIR      90  68  48 NW7       29.99F HX  93
$$

ARZ036-222200-
EAST ARKANSAS

CITY           SKY/WX    TMP DP  RH WIND       PRES   REMARKS
WEST MEMPHIS   MOSUNNY   93  75  55 W10       29.93F HX 104
$$

ARZ050-053-066-070-073-222200-
SOUTHWEST ARKANSAS

CITY           SKY/WX    TMP DP  RH WIND       PRES   REMARKS
ARKADELPHIA    TSTM      76  74  93 NW7       30.04R FOG
CAMDEN         SUNNY     95  70  43 S5        29.99F HX 101
TEXARKANA      PTSUNNY   90  75  61 S6        30.01F HX 100
EL DORADO      MOSUNNY   93  71  48 VRB3      30.01F HX 100
DE QUEEN       SUNNY     93  76  57 SW6       29.98F HX 105
$$

ARZ056-057-069-222200-
SOUTHEAST ARKANSAS

CITY           SKY/WX    TMP DP  RH WIND       PRES   REMARKS
PINE BLUFF     SUNNY     92  73  53 SW9       29.98F HX 100
MONTICELLO     MOSUNNY   93  73  52 W3        29.99F HX 102

$$






USA.gov is the U.S. government's official web portal to all federal, state and local government web resources and services.